RH
100 93 92 97 99 87 81 92 98 100 100 93 97 94 72 50 52 64 78 77 76 80 84 67 85 86 85 77 84 82 66 88 90 82 64 77 86 92 93 91 93 97 94 83
97 80 99 93 92 77 87 96 100 100 98 98 97 76 64 55 51 60 77 72 60 65 81 84 78 83 71 78 80 90 81 82 88 72 59 64 74 70 82 88 88 97 93 87
94 99 98 90 81 82 83 66 99 97 100 92 81 72 71 67 56 47 60 58 58 67 80 71 68 80 75 75 80 70 59 68 70 87 75 73 76 71 82 85 92 97 98 95
99 100 91 90 81 81 76 54 88 83 92 92 84 62 67 75 73 59 56 57 56 69 87 78 91 65 83 76 78 76 70 67 73 66 64 64 62 78 92 90 86 92 98 98
100 100 100 95 77 82 56 55 70 76 83 87 69 56 63 73 60 66 66 65 54 63 85 84 88 86 85 84 73 94 82 68 84 91 66 62 86 84 90 88 94 91 98 97
99 97 88 70 55 94 67 49 56 50 72 70 72 65 59 60 58 55 62 63 64 77 72 68 70 76 89 92 84 79 85 87 88 99 81 64 85 98 92 87 83 86 93 80
100 96 87 71 55 91 54 48 46 46 66 64 57 58 50 60 55 63 55 62 65 68 74 70 74 87 90 83 83 84 90 86 87 98 81 93 96 84 79 87 84 90 82 79
100 97 86 73 53 75 70 46 40 38 67 60 57 54 68 58 54 55 55 59 64 62 76 77 79 74 88 86 80 77 84 92 93 96 85 93 88 86 88 86 92 84 89 84
97 97 89 80 57 68 60 41 42 37 55 60 55 60 57 71 70 62 61 61 62 74 88 77 93 97 85 85 88 83 82 89 90 92 93 92 84 64 70 74 84 80 84 86
100 96 92 84 59 58 49 40 43 38 57 65 55 59 59 56 65 72 65 66 74 76 87 88 89 81 72 88 89 72 73 83 76 88 93 88 66 81 76 80 74 82 85 86
99 99 94 89 82 50 45 44 44 35 61 72 64 61 57 62 59 75 67 80 80 87 80 80 80 77 78 82 75 81 88 95 96 94 88 89 81 75 84 84 82 87 89 84
98 90 96 97 71 56 54 48 46 38 44 77 73 71 64 58 58 58 82 78 82 76 83 84 81 76 82 81 94 74 83 80 83 81 77 73 89 87 88 89 91 91 92 89
100 96 98 97 78 49 51 42 42 36 64 69 66 70 72 73 67 69 70 75 76 76 74 80 86 72 81 87 88 81 73 76 84 83 78 86 76 82 86 90 90 86 86 86
99 100 98 72 83 78 44 41 37 32 39 62 79 74 67 68 66 63 64 68 72 75 74 77 88 84 84 86 78 82 76 75 80 85 81 88 86 82 81 83 79 81 82 90
100 99 99 84 91 82 42 47 36 47 48 80 83 83 83 71 66 72 74 74 76 74 75 84 85 85 86 88 83 88 79 81 88 88 80 82 79 82 84 80 78 89 92 88
99 100 100 83 81 38 47 44 39 53 47 48 90 91 97 81 72 67 72 78 71 69 76 84 78 74 80 88 90 71 80 80 76 79 84 81 81 85 86 79 82 83 79 87
100 100 100 95 66 41 49 45 44 48 42 38 91 92 90 85 83 78 70 63 64 64 74 77 82 75 80 87 91 70 85 87 85 81 77 90 91 91 82 73 77 86 88 84
100 100 100 93 69 47 53 48 50 48 41 40 94 93 88 88 80 81 78 76 77 74 79 83 85 77 85 97 73 87 86 91 89 82 80 78 80 79 88 83 75 82 88 91
100 100 100 99 92 76 51 46 53 55 51 58 79 92 97 89 76 76 81 80 91 87 90 85 81 86 97 80 72 83 86 78 70 75 75 77 83 91 95 92 89 86 88 89
100 100 100 100 98 71 58 47 55 47 44 51 82 85 92 80 78 82 84 92 97 97 86 83 97 91 63 61 63 61 80 77 74 76 81 90 90 93 94 95 97 94 90 87
100 99 99 99 87 64 51 52 61 53 77 69 82 86 95 91 89 94 79 95 97 99 87 92 93 94 85 67 67 72 79 75 70 69 69 73 68 73 72 68 70 81 92 95
98 98 98 98 98 80 91 90 86 88 69 91 92 86 80 81 74 79 90 90 93 92 86 95 96 86 74 81 79 78 72 68 62 50 43 41 38 39 39 39 42 59 81 86
99 98 98 98 99 99 75 78 99 98 96 89 93 97 77 79 72 87 90 88 94 84 96 86 87 71 85 87 82 77 72 56 44 40 37 36 35 35 37 38 41 48 64 85
98 98 98 97 99 95 89 81 82 64 76 83 73 100 82 78 86 89 86 81 92 90 96 88 91 71 85 85 78 65 48 40 38 35 35 34 35 38 41 48 59 73 85 94
98 99 96 98 86 91 75 79 82 79 76 60 70 82 74 99 96 88 91 95 100 92 88 88 61 72 80 75 63 43 37 36 37 35 32 34 44 54 60 68 84 98 95 94
98 98 98 95 93 100 100 94 96 82 64 34 39 93 89 96 93 99 94 89 88 76 91 63 69 76 71 58 40 34 33 36 33 29 33 44 62 75 83 84 96 94 92 91
98 97 87 81 88 86 96 86 83 68 40 77 81 55 58 93 99 92 92 84 78 55 69 73 72 65 45 32 30 34 37 31 24 29 42 58 66 76 78 66 77 97 99 98
Wind_Speed
47 17 8 28 28 28 27 16 3 20 18 3 1 2 4 3 6 3 3 3 2 2 2 4 2 2 5 3 3 5 1 1 2 4 4 3 2 4 2 3 3 4 3 3
29 14 33 24 39 31 31 10 6 15 12 2 1 2 1 2 6 4 2 2 0 2 2 3 2 2 2 4 4 4 4 3 3 7 5 5 4 5 3 3 2 4 3 2
14 34 17 30 35 27 19 7 3 2 6 2 2 4 3 2 2 3 4 2 4 3 3 4 2 2 1 4 5 7 2 2 2 3 2 3 5 7 7 4 4 1 3 4
26 14 23 26 29 28 8 2 3 6 5 4 3 2 3 4 3 1 3 2 3 3 2 1 3 2 4 4 9 6 3 3 3 2 4 3 4 6 10 11 6 4 2 5
8 18 22 28 28 25 2 2 4 5 2 5 5 0 4 4 3 2 1 3 4 4 4 2 3 1 3 1 3 3 3 1 2 6 5 5 4 9 7 7 6 4 5 6
20 20 20 21 27 16 2 4 6 3 2 2 4 4 5 6 7 3 1 7 3 7 3 4 5 7 6 4 2 2 1 2 3 3 4 3 5 8 4 2 2 3 4 3
16 14 22 21 20 16 4 5 1 2 2 2 2 4 2 6 3 5 3 4 3 5 10 11 8 9 7 7 4 2 4 3 2 1 3 4 3 4 3 4 1 3 4 6
19 17 22 21 14 21 6 4 4 1 3 2 3 4 5 10 7 4 4 4 5 8 5 2 2 1 3 2 3 4 3 1 2 2 3 2 1 3 2 1 1 3 4 7
12 17 22 22 15 18 10 4 4 3 9 3 4 4 5 4 3 3 3 5 4 3 2 1 1 1 1 1 1 2 2 1 1 1 3 2 0 2 1 3 2 6 5 6
12 18 25 21 17 17 10 3 2 3 6 3 5 2 5 6 4 3 3 4 2 2 2 1 1 1 2 0 3 2 1 1 3 1 2 3 3 8 2 3 3 6 7 10
15 20 24 22 13 11 15 5 2 2 5 6 3 3 5 6 5 4 6 4 1 2 2 2 2 2 2 1 2 2 4 4 2 0 1 2 6 2 1 1 3 5 9 9
13 15 25 21 13 10 11 2 3 3 4 8 11 10 7 5 6 5 7 2 2 4 3 1 2 1 1 2 2 1 1 4 3 4 3 2 4 3 3 3 3 7 9 8
24 18 24 22 14 6 6 3 7 5 12 9 6 7 7 5 5 5 4 3 4 3 3 5 2 2 3 3 4 2 1 3 2 2 1 2 1 2 3 5 5 6 8 6
30 23 26 17 14 6 6 3 9 4 6 5 2 4 4 4 3 3 4 3 6 7 4 2 2 2 4 3 2 3 4 4 3 1 1 1 1 2 5 5 4 6 6 7
24 22 24 18 15 9 8 7 10 2 2 5 6 8 5 4 5 5 6 7 9 4 3 2 2 2 2 0 1 3 7 6 4 4 4 3 2 1 3 5 8 8 8 7
25 27 24 22 13 10 7 6 13 6 5 5 3 4 4 6 5 6 6 7 4 2 3 1 1 2 2 2 3 4 8 8 8 5 6 3 3 2 0 5 7 7 8 8
23 28 26 23 15 14 6 2 3 13 7 2 4 2 4 5 4 4 4 3 2 2 2 1 1 1 0 2 3 3 11 10 9 7 3 2 4 4 4 6 8 8 7 8
28 32 27 24 17 18 11 3 8 13 3 3 3 2 4 6 2 2 2 2 2 1 1 1 1 1 1 3 7 6 12 11 9 6 3 4 6 8 6 6 9 9 8 9
36 35 30 24 15 10 11 3 9 8 4 5 3 5 4 9 4 3 3 2 1 1 1 2 4 2 5 6 10 16 17 11 6 7 5 5 5 7 7 7 7 10 11 12
40 36 13 8 14 11 12 6 4 6 6 5 3 8 4 9 5 4 3 2 2 0 3 4 2 4 15 8 9 12 17 12 7 5 4 5 6 7 8 10 12 14 16 18
34 13 7 16 24 11 9 6 5 5 2 8 8 7 6 10 3 3 5 3 1 1 3 3 3 3 4 13 11 14 14 10 6 4 3 3 5 7 10 11 13 13 15 17
29 14 23 23 7 4 4 4 1 4 6 8 10 9 7 8 5 4 4 3 2 3 6 2 3 3 5 17 17 15 11 8 5 3 3 5 7 9 12 15 17 17 15 17
26 9 9 8 6 4 9 9 4 2 10 14 14 5 8 6 4 5 3 4 4 3 2 4 4 3 11 18 16 13 10 7 4 3 5 8 11 13 16 18 18 18 18 18
10 9 7 6 6 7 5 4 6 10 16 30 25 9 6 5 3 3 4 3 3 4 3 6 3 13 18 18 16 12 9 5 3 5 8 12 15 16 16 18 18 18 17 19
9 8 6 8 6 2 6 12 18 13 37 40 16 9 6 2 3 2 4 4 5 6 5 3 8 19 22 20 16 11 6 3 4 7 11 13 16 18 18 16 17 15 17 20
10 7 2 1 3 3 7 10 13 29 39 28 6 4 4 2 4 3 7 8 7 4 3 7 20 24 21 17 13 8 3 3 6 9 12 16 18 18 19 17 14 13 17 18
8 4 12 13 2 6 11 17 18 38 33 4 5 5 5 4 3 3 4 5 3 8 12 22 24 23 20 13 8 4 2 4 7 10 13 16 17 17 16 16 13 11 13 16
Wind_Direction
329 298 194 161 165 149 148 143 112 160 156 127 42 153 189 163 160 119 100 122 96 119 117 54 90 190 223 291 303 331 278 151 358 272 277 280 292 325 352 74 344 43 110 36
348 156 160 171 151 154 149 114 93 167 172 160 268 265 102 121 166 138 151 94 321 71 107 105 147 202 233 334 11 338 325 359 11 346 357 359 13 338 356 104 73 39 87 305
99 148 169 166 145 148 155 138 116 157 201 203 169 137 143 124 59 164 105 134 93 56 61 62 108 56 342 341 349 342 2 55 122 163 214 294 344 348 14 53 68 272 72 332
148 148 165 139 153 157 166 140 141 157 183 219 212 128 139 142 115 22 36 30 134 143 97 91 89 47 20 6 349 6 61 61 334 301 270 298 9 33 37 44 28 92 39 50
135 177 174 159 162 162 264 104 131 131 103 163 136 183 190 148 103 132 244 141 110 62 89 18 93 56 56 27 11 34 7 102 319 17 22 11 59 37 69 36 360 25 56 53
165 152 145 145 159 168 344 38 116 123 29 115 117 204 180 172 127 50 9 149 106 82 100 88 87 76 86 62 69 9 28 90 38 328 342 7 26 357 37 66 39 351 39 313
190 185 153 155 173 184 345 342 100 95 122 126 175 166 120 130 96 135 81 103 90 133 112 93 83 84 88 76 34 70 354 7 86 179 8 57 99 20 122 107 32 329 317 332
189 176 172 171 186 186 243 341 353 68 103 126 74 121 113 97 79 66 92 60 107 128 137 105 31 44 169 67 11 342 51 357 36 91 67 77 96 2 10 71 103 199 328 335
199 204 182 174 187 188 213 332 7 8 122 228 130 117 143 121 103 30 81 111 139 142 101 134 131 177 32 77 137 322 335 358 87 170 73 92 79 301 313 219 41 360 7 331
199 196 185 182 209 196 196 312 347 7 99 111 144 145 166 129 114 109 127 153 144 156 77 77 118 215 155 124 162 149 81 48 80 338 105 297 314 316 318 115 216 340 338 332
212 204 195 180 195 210 211 286 254 322 107 106 122 127 141 137 147 142 156 110 227 69 92 124 203 149 218 99 187 184 177 139 206 96 107 278 6 340 58 278 345 343 353 347
226 215 195 196 180 182 204 281 205 175 121 121 111 105 121 139 139 143 160 135 164 161 104 131 121 134 84 150 241 80 220 182 170 171 216 282 14 76 46 27 349 5 0 353
214 217 196 193 183 134 155 245 189 154 109 104 115 96 102 114 137 150 157 195 182 174 130 148 148 148 133 167 235 178 241 174 160 93 185 202 127 80 46 15 13 4 7 16
209 207 200 185 178 164 196 210 185 159 125 114 112 114 115 98 123 180 211 227 174 146 125 96 126 155 192 201 199 177 198 140 155 272 271 183 104 43 347 346 337 320 332 347
214 203 198 182 173 199 191 196 191 242 247 130 131 110 78 102 101 109 120 153 162 143 106 72 181 178 128 275 83 245 188 175 163 212 177 148 156 4 336 316 312 332 337 327
214 206 198 185 170 169 156 191 215 221 179 123 115 106 90 108 109 119 127 142 148 100 109 153 232 189 164 138 231 254 187 174 157 163 167 216 268 237 349 313 314 305 310 319
215 205 196 181 167 169 178 245 235 187 180 170 108 106 155 134 105 94 91 115 107 92 109 138 235 223 173 183 225 217 183 175 161 152 154 163 175 201 272 281 301 305 303 296
208 204 193 178 166 181 206 304 179 168 186 156 110 95 165 175 140 133 122 109 107 82 145 182 201 208 304 251 227 184 176 179 189 199 213 236 261 276 284 272 279 287 297 302
198 192 184 166 169 177 205 209 181 188 225 155 124 145 185 161 152 136 153 151 83 142 188 239 156 198 228 222 197 190 186 187 198 208 250 270 265 253 264 283 284 282 289 292
183 182 165 175 167 155 170 175 186 211 215 188 107 129 143 157 156 180 138 154 162 128 244 164 201 254 245 220 209 202 193 200 209 222 233 237 260 265 277 288 289 291 289 289
172 165 154 142 141 135 171 196 183 188 259 184 140 147 140 180 135 172 200 181 186 122 249 144 265 269 237 205 196 178 183 194 208 223 238 272 298 304 303 302 296 292 292 293
178 160 132 132 148 169 163 193 217 191 211 153 137 151 131 146 145 115 175 135 49 215 151 128 262 250 188 171 168 168 175 181 188 208 263 296 305 306 303 304 304 300 293 293
148 133 155 161 170 194 189 192 235 181 170 166 156 134 136 130 146 97 98 95 205 134 191 232 228 183 170 169 169 170 173 183 199 257 298 306 308 309 308 305 303 300 292 299
162 161 172 208 189 225 190 185 160 165 159 148 141 115 126 129 107 147 114 215 102 195 235 234 240 184 166 165 167 171 175 193 257 300 313 318 316 314 310 304 304 301 302 305
165 170 210 214 214 151 175 146 130 136 147 144 116 92 111 77 115 191 125 150 221 211 227 224 181 167 166 166 167 169 183 235 298 314 318 321 322 321 319 312 305 306 301 296
171 203 186 164 99 128 158 157 132 146 150 142 123 117 95 165 146 139 209 150 215 229 208 181 159 162 165 165 168 176 209 284 314 325 328 328 326 324 323 323 320 303 298 299
180 206 203 178 222 182 174 168 162 157 154 145 135 119 170 102 88 221 198 206 215 175 165 156 158 160 161 164 170 191 242 308 322 331 331 329 328 324 322 322 320 304 304 304